Location: G�ppingen
(48.7089°N, 9.6563°E)
Time: 03:33:03
(UTC+01:00)

ISS - Pass Details

Date: 06 January 2018
Orbit: 402 x 407 km, 51.6° (Epoch: 22 January)

Event Time Altitude Azimuth Distance (km) Brightness Sun altitude
Exits shadow 05:13:26 15° 66° (ENE) 1,199 -0.8 -28.7°
Drops below altitude 10° 05:14:07 10° 68° (ENE) 1,471 -0.2 -28.6°
Sets 05:16:13 0° 72° (ENE) 2,334 1.1 -28.2°
